TimeEDT,TemperatureF,Dew PointF,Humidity,Sea Level PressureIn,VisibilityMPH,Wind Direction,Wind SpeedMPH,Gust SpeedMPH,PrecipitationIn,Events,Conditions,WindDirDegrees,DateUTC
12:54 AM,55.0,51.1,86,29.70,10.0,Calm,Calm,-,N/A,,Overcast,0,2013-05-12 04:54:00
1:54 AM,54.0,50.0,86,29.70,10.0,Calm,Calm,-,N/A,,Overcast,0,2013-05-12 05:54:00
2:54 AM,53.1,48.0,83,29.69,10.0,Calm,Calm,-,N/A,,Overcast,0,2013-05-12 06:54:00
3:54 AM,52.0,46.9,83,29.68,10.0,Calm,Calm,-,N/A,,Overcast,0,2013-05-12 07:54:00
4:54 AM,51.1,46.9,86,29.68,10.0,Calm,Calm,-,N/A,,Overcast,0,2013-05-12 08:54:00
5:54 AM,51.1,46.0,83,29.68,10.0,Calm,Calm,-,N/A,,Overcast,0,2013-05-12 09:54:00
6:54 AM,51.1,46.9,86,29.70,10.0,Calm,Calm,-,N/A,,Overcast,0,2013-05-12 10:54:00
7:54 AM,52.0,46.0,80,29.69,10.0,Calm,Calm,-,N/A,,Overcast,0,2013-05-12 11:54:00
8:54 AM,54.0,45.0,72,29.68,10.0,Calm,Calm,-,N/A,,Overcast,0,2013-05-12 12:54:00
9:54 AM,57.0,43.0,59,29.67,10.0,WNW,6.9,-,N/A,,Partly Cloudy,290,2013-05-12 13:54:00
10:54 AM,55.9,44.1,64,29.66,10.0,NW,4.6,-,N/A,,Mostly Cloudy,320,2013-05-12 14:54:00
11:54 AM,52.0,43.0,71,29.68,10.0,West,10.4,23.0,N/A,,Overcast,260,2013-05-12 15:54:00
12:30 PM,48.2,39.2,71,29.70,10.0,West,4.6,18.4,N/A,,Overcast,270,2013-05-12 16:30:00
12:54 PM,48.0,37.0,66,29.71,10.0,Variable,5.8,17.3,N/A,,Overcast,0,2013-05-12 16:54:00
1:05 PM,48.2,37.4,66,29.71,10.0,West,10.4,17.3,N/A,,Overcast,260,2013-05-12 17:05:00
1:54 PM,46.0,35.1,66,29.74,10.0,WSW,4.6,-,N/A,,Overcast,240,2013-05-12 17:54:00
2:54 PM,48.0,35.1,61,29.72,10.0,SSE,3.5,-,0.00,,Overcast,150,2013-05-12 18:54:00
3:54 PM,55.9,30.9,39,29.71,10.0,WNW,12.7,24.2,N/A,,Clear,300,2013-05-12 19:54:00
4:54 PM,54.0,27.0,35,29.72,10.0,NW,11.5,23.0,N/A,,Scattered Clouds,310,2013-05-12 20:54:00
5:54 PM,55.0,25.0,31,29.72,10.0,NW,8.1,20.7,N/A,,Partly Cloudy,310,2013-05-12 21:54:00
6:54 PM,52.0,25.0,35,29.74,10.0,Variable,5.8,19.6,N/A,,Partly Cloudy,0,2013-05-12 22:54:00
7:54 PM,50.0,27.0,41,29.77,10.0,West,17.3,23.0,N/A,,Mostly Cloudy,270,2013-05-12 23:54:00
8:54 PM,48.9,25.0,39,29.79,10.0,West,6.9,16.1,N/A,,Overcast,260,2013-05-13 00:54:00
9:54 PM,46.9,26.1,44,29.82,10.0,WNW,4.6,-,N/A,,Scattered Clouds,290,2013-05-13 01:54:00
10:54 PM,45.0,26.1,48,29.83,10.0,West,5.8,-,N/A,,Clear,280,2013-05-13 02:54:00
11:54 PM,42.1,28.0,58,29.87,10.0,West,5.8,18.4,N/A,,Partly Cloudy,280,2013-05-13 03:54:00